Location: *
(34.8620°S, 39.3380°E)
Time: 02:56:03
(UTC+00:00)

Tiangong - Visible Passes

Search period start: 21 October 2021 00:00
Search period end: 31 October 2021 00:00
Orbit: 382 x 384 km, 41.5° (Epoch: 20 October)

Date Brightness Start Highest point End Pass type
(mag) Time Alt. Az. Time Alt. Az. Time Alt. Az.
21 Oct 1.9 01:51:27 10° NW 01:54:30 43° NNE 01:57:34 10° ESE visible
22 Oct 2.9 00:54:14 22° NNE 00:54:27 23° NE 00:57:03 10° E visible
23 Oct 1.0 01:29:06 24° WNW 01:30:53 84° NNE 01:34:06 10° ESE visible
24 Oct 2.7 00:31:42 32° ENE 00:31:42 32° ENE 00:33:48 10° ESE visible
25 Oct 1.4 01:06:24 39° WSW 01:07:16 56° SSW 01:10:27 10° ESE visible
26 Oct 3.5 00:08:52 23° ESE 00:08:52 23° ESE 00:10:13 10° ESE visible
26 Oct 2.7 01:41:11 10° WSW 01:44:02 28° S 01:46:53 10° SE visible
27 Oct 2.1 00:43:26 37° SSW 00:43:38 37° SSW 00:46:39 10° SE visible
27 Oct 4.3 23:45:49 14° ESE 23:45:49 14° ESE 23:46:25 10° ESE visible
28 Oct 3.0 01:17:58 12° WSW 01:20:25 24° S 01:23:08 10° SE visible
29 Oct 3.0 00:20:20 27° S 00:20:20 27° S 00:22:47 10° SE visible
29 Oct 3.1 01:54:30 10° SW 01:57:16 25° S 02:00:01 10° ESE visible
30 Oct 3.2 00:54:51 15° SW 00:56:44 24° S 00:59:25 10° ESE visible
30 Oct 3.7 23:57:13 21° SSE 23:57:13 21° SSE 23:58:53 10° SE visible
